Private Wetterstation Wechselburg
Wetterdaten: Dienstag, 01.11.2011
Datum Zeit Temp. +2m Bodentemp. Temp.+5cm Temp. Wind Windchill X Diff Temp. Feuchte +2m Feuchte +5cm Sonnenschein Luftdruck Regen Wind Richtung Richtung Sonnenschein UV Taupunkt Windchill Windben
01.11.2011 00:00 6,3 C 15,6 C 6,6 C 6,1 C 5,7 C 0,0 C 91 % 92 % 0 % 1018,9 hPa 0,0 l/m 0,0 km/h (0 Bft) W-SW 247 0 min 0,0 UV-I 4,9 C 5,7 C 0,0 km/h (0 Bft)
01.11.2011 00:10 6,1 C 15,6 C 6,5 C 6,0 C 5,7 C 0,0 C 91 % 92 % 0 % 1018,9 hPa 0,0 l/m 0,0 km/h (0 Bft) N 0 0 min 0,0 UV-I 4,7 C 5,7 C 0,0 km/h (0 Bft)
01.11.2011 00:20 6,0 C 15,6 C 6,4 C 5,8 C 5,5 C 0,0 C 92 % 92 % 0 % 1018,9 hPa 0,0 l/m 0,0 km/h (0 Bft) W-NW 292 0 min 0,0 UV-I 4,8 C 5,5 C 0,0 km/h (0 Bft)
01.11.2011 00:25 5,9 C 15,6 C 6,4 C 5,7 C 5,3 C 0,0 C 91 % 92 % 0 % 1018,9 hPa 0,0 l/m 0,0 km/h (0 Bft) N-NO 22 0 min 0,0 UV-I 4,5 C 5,3 C 0,0 km/h (0 Bft)
01.11.2011 00:30 5,8 C 15,6 C 6,3 C 5,6 C 5,3 C 0,0 C 91 % 92 % 0 % 1018,9 hPa 0,0 l/m 0,0 km/h (0 Bft) N-NO 22 0 min 0,0 UV-I 4,4 C 5,3 C 0,0 km/h (0 Bft)
01.11.2011 00:35 5,6 C 15,6 C 6,2 C 5,5 C 5,2 C 0,0 C 91 % 92 % 0 % 1018,9 hPa 0,0 l/m 0,0 km/h (0 Bft) W 270 0 min 0,0 UV-I 4,2 C 5,2 C 0,0 km/h (0 Bft)
01.11.2011 00:40 5,6 C 15,6 C 6,2 C 5,4 C 5,1 C 0,0 C 91 % 92 % 0 % 1018,8 hPa 0,0 l/m 0,0 km/h (0 Bft) W 270 0 min 0,0 UV-I 4,2 C 5,1 C 0,0 km/h (0 Bft)
01.11.2011 00:45 5,5 C 15,5 C 6,1 C 5,4 C 5,2 C 0,0 C 91 % 92 % 0 % 1018,8 hPa 0,0 l/m 0,0 km/h (0 Bft) W 270 0 min 0,0 UV-I 4,2 C 5,2 C 0,0 km/h (0 Bft)
01.11.2011 00:50 5,5 C 15,5 C 6,0 C 5,4 C 5,2 C 0,0 C 91 % 92 % 0 % 1018,8 hPa 0,0 l/m 0,0 km/h (0 Bft) W 270 0 min 0,0 UV-I 4,2 C 5,2 C 0,0 km/h (0 Bft)
01.11.2011 00:55 5,5 C 15,5 C 6,0 C 5,4 C 5,2 C 0,0 C 91 % 92 % 0 % 1018,8 hPa 0,0 l/m 0,0 km/h (0 Bft) O-NO 67 0 min 0,0 UV-I 4,2 C 5,2 C 0,0 km/h (0 Bft)
01.11.2011 01:00 5,5 C 15,5 C 6,0 C 5,4 C 5,1 C 0,0 C 91 % 92 % 0 % 1018,9 hPa 0,0 l/m 0,0 km/h (0 Bft) W 270 0 min 0,0 UV-I 4,2 C 5,1 C 0,0 km/h (0 Bft)
01.11.2011 01:10 5,3 C 15,5 C 6,0 C 5,1 C 4,7 C 0,0 C 91 % 92 % 0 % 1018,9 hPa 0,0 l/m 0,0 km/h (0 Bft) N 0 0 min 0,0 UV-I 4,0 C 4,7 C 0,0 km/h (0 Bft)
01.11.2011 01:20 5,2 C 15,5 C 5,7 C 5,1 C 5,0 C 0,0 C 92 % 92 % 0 % 1018,7 hPa 0,0 l/m 0,0 km/h (0 Bft) O-NO 67 0 min 0,0 UV-I 4,0 C 5,0 C 0,0 km/h (0 Bft)
01.11.2011 01:25 5,3 C 15,5 C 5,8 C 5,2 C 5,1 C 0,0 C 92 % 92 % 0 % 1018,7 hPa 0,0 l/m 0,0 km/h (0 Bft) O-NO 67 0 min 0,0 UV-I 4,1 C 5,1 C 0,0 km/h (0 Bft)
01.11.2011 01:30 5,2 C 15,4 C 5,8 C 5,1 C 5,0 C 0,0 C 92 % 92 % 0 % 1018,7 hPa 0,0 l/m 0,0 km/h (0 Bft) O-NO 67 0 min 0,0 UV-I 4,0 C 5,0 C 0,0 km/h (0 Bft)
01.11.2011 01:35 5,1 C 15,4 C 5,7 C 5,0 C 4,7 C 0,0 C 92 % 92 % 0 % 1018,7 hPa 0,0 l/m 0,0 km/h (0 Bft) W-SW 247 0 min 0,0 UV-I 3,9 C 4,7 C 0,0 km/h (0 Bft)
01.11.2011 01:40 4,9 C 15,4 C 5,7 C 4,8 C 4,5 C 0,0 C 91 % 92 % 0 % 1019,1 hPa 0,0 l/m 0,0 km/h (0 Bft) W-SW 247 0 min 0,0 UV-I 3,6 C 4,5 C 0,0 km/h (0 Bft)
01.11.2011 01:45 4,8 C 15,4 C 5,6 C 4,6 C 4,2 C 0,0 C 91 % 92 % 0 % 1019,1 hPa 0,0 l/m 0,0 km/h (0 Bft) W-SW 247 0 min 0,0 UV-I 3,5 C 4,2 C 0,0 km/h (0 Bft)
01.11.2011 01:50 4,7 C 15,4 C 5,5 C 4,5 C 4,0 C 0,0 C 91 % 92 % 0 % 1019,1 hPa 0,0 l/m 0,0 km/h (0 Bft) W-SW 247 0 min 0,0 UV-I 3,4 C 4,0 C 0,0 km/h (0 Bft)
01.11.2011 01:55 4,5 C 15,4 C 5,5 C 4,3 C 3,8 C 0,0 C 91 % 92 % 0 % 1019,1 hPa 0,0 l/m 0,0 km/h (0 Bft) W-SW 247 0 min 0,0 UV-I 3,2 C 3,8 C 0,0 km/h (0 Bft)
01.11.2011 02:00 4,4 C 15,4 C 5,5 C 4,2 C 3,8 C 0,0 C 91 % 92 % 0 % 1018,8 hPa 0,0 l/m 0,0 km/h (0 Bft) W-NW 292 0 min 0,0 UV-I 3,1 C 3,8 C 0,0 km/h (0 Bft)
01.11.2011 02:10 4,3 C 15,3 C 5,4 C 4,1 C 3,8 C 0,0 C 91 % 92 % 0 % 1018,8 hPa 0,0 l/m 0,0 km/h (0 Bft) N 0 0 min 0,0 UV-I 3,0 C 3,8 C 0,0 km/h (0 Bft)
01.11.2011 02:15 4,2 C 15,3 C 5,3 C 4,0 C 3,7 C 0,0 C 91 % 92 % 0 % 1018,8 hPa 0,0 l/m 0,0 km/h (0 Bft) W-SW 247 0 min 0,0 UV-I 2,9 C 3,7 C 0,0 km/h (0 Bft)
01.11.2011 02:20 4,2 C 15,3 C 5,3 C 4,0 C 3,6 C 0,0 C 91 % 92 % 0 % 1018,6 hPa 0,0 l/m 0,0 km/h (0 Bft) W-SW 247 0 min 0,0 UV-I 2,9 C 3,6 C 0,0 km/h (0 Bft)
01.11.2011 02:25 4,0 C 15,3 C 5,2 C 3,8 C 3,4 C 0,0 C 91 % 92 % 0 % 1018,6 hPa 0,0 l/m 0,0 km/h (0 Bft) W-SW 247 0 min 0,0 UV-I 2,7 C 3,4 C 0,0 km/h (0 Bft)
01.11.2011 02:30 3,9 C 15,3 C 5,1 C 3,7 C 3,4 C 0,0 C 91 % 92 % 0 % 1018,6 hPa 0,0 l/m 0,0 km/h (0 Bft) W-SW 247 0 min 0,0 UV-I 2,6 C 3,4 C 0,0 km/h (0 Bft)
01.11.2011 02:35 3,9 C 15,3 C 5,1 C 3,7 C 3,3 C 0,0 C 91 % 92 % 0 % 1018,6 hPa 0,0 l/m 0,0 km/h (0 Bft) W-SW 247 0 min 0,0 UV-I 2,6 C 3,3 C 0,0 km/h (0 Bft)
01.11.2011 02:40 3,9 C 15,3 C 5,0 C 3,7 C 3,2 C 0,0 C 91 % 92 % 0 % 1018,4 hPa 0,0 l/m 0,0 km/h (0 Bft) SW 225 0 min 0,0 UV-I 2,6 C 3,2 C 0,0 km/h (0 Bft)
01.11.2011 02:45 3,7 C 15,3 C 4,8 C 3,5 C 3,1 C 0,0 C 92 % 92 % 0 % 1018,4 hPa 0,0 l/m 0,0 km/h (0 Bft) SW 225 0 min 0,0 UV-I 2,5 C 3,1 C 0,0 km/h (0 Bft)
01.11.2011 02:50 3,6 C 15,2 C 4,8 C 3,4 C 3,0 C 0,0 C 92 % 92 % 0 % 1018,4 hPa 0,0 l/m 0,0 km/h (0 Bft) W-SW 247 0 min 0,0 UV-I 2,4 C 3,0 C 0,0 km/h (0 Bft)
01.11.2011 02:55 3,6 C 15,2 C 4,9 C 3,4 C 3,0 C 0,0 C 92 % 92 % 0 % 1018,4 hPa 0,0 l/m 0,0 km/h (0 Bft) W-NW 292 0 min 0,0 UV-I 2,4 C 3,0 C 0,0 km/h (0 Bft)
01.11.2011 03:00 3,6 C 15,2 C 4,8 C 3,4 C 3,0 C 0,0 C 92 % 92 % 0 % 1018,5 hPa 0,0 l/m 0,0 km/h (0 Bft) W-NW 292 0 min 0,0 UV-I 2,4 C 3,0 C 0,0 km/h (0 Bft)
01.11.2011 03:10 3,5 C 15,2 C 4,8 C 3,2 C 2,6 C 0,0 C 92 % 92 % 0 % 1018,5 hPa 0,0 l/m 0,0 km/h (0 Bft) N 0 0 min 0,0 UV-I 2,3 C 2,6 C 0,0 km/h (0 Bft)
01.11.2011 03:15 3,4 C 15,2 C 4,6 C 3,1 C 2,6 C 0,0 C 92 % 92 % 0 % 1018,5 hPa 0,0 l/m 0,0 km/h (0 Bft) W 270 0 min 0,0 UV-I 2,2 C 2,6 C 0,0 km/h (0 Bft)
01.11.2011 03:20 3,5 C 15,2 C 4,5 C 3,2 C 2,7 C 0,0 C 92 % 92 % 0 % 1018,6 hPa 0,0 l/m 0,0 km/h (0 Bft) W-SW 247 0 min 0,0 UV-I 2,3 C 2,7 C 0,0 km/h (0 Bft)
01.11.2011 03:25 3,3 C 15,2 C 4,7 C 3,1 C 2,6 C 0,0 C 92 % 92 % 0 % 1018,6 hPa 0,0 l/m 0,0 km/h (0 Bft) W-SW 247 0 min 0,0 UV-I 2,1 C 2,6 C 0,0 km/h (0 Bft)
01.11.2011 03:30 3,2 C 15,1 C 4,7 C 3,0 C 2,6 C 0,0 C 91 % 92 % 0 % 1018,6 hPa 0,0 l/m 0,0 km/h (0 Bft) W-SW 247 0 min 0,0 UV-I 1,9 C 2,6 C 0,0 km/h (0 Bft)
01.11.2011 03:35 3,3 C 15,1 C 4,5 C 3,1 C 2,6 C 0,0 C 92 % 92 % 0 % 1018,6 hPa 0,0 l/m 0,0 km/h (0 Bft) W-SW 247 0 min 0,0 UV-I 2,1 C 2,6 C 0,0 km/h (0 Bft)
01.11.2011 03:40 3,2 C 15,1 C 4,3 C 3,0 C 2,7 C 0,0 C 92 % 92 % 0 % 1018,3 hPa 0,0 l/m 0,0 km/h (0 Bft) W-SW 247 0 min 0,0 UV-I 2,0 C 2,7 C 0,0 km/h (0 Bft)
01.11.2011 03:45 3,3 C 15,1 C 4,3 C 3,1 C 2,6 C 0,0 C 92 % 92 % 0 % 1018,3 hPa 0,0 l/m 0,0 km/h (0 Bft) W 270 0 min 0,0 UV-I 2,1 C 2,6 C 0,0 km/h (0 Bft)
01.11.2011 03:50 3,1 C 15,1 C 4,2 C 2,9 C 2,6 C 0,0 C 92 % 92 % 0 % 1018,3 hPa 0,0 l/m 0,0 km/h (0 Bft) W-SW 247 0 min 0,0 UV-I 1,9 C 2,6 C 0,0 km/h (0 Bft)
01.11.2011 03:55 3,1 C 15,1 C 4,3 C 2,9 C 2,4 C 0,0 C 92 % 92 % 0 % 1018,3 hPa 0,0 l/m 0,0 km/h (0 Bft) W 270 0 min 0,0 UV-I 1,9 C 2,4 C 0,0 km/h (0 Bft)
01.11.2011 04:00 2,9 C 15,1 C 4,2 C 2,7 C 2,3 C 0,0 C 92 % 92 % 0 % 1018,3 hPa 0,0 l/m 0,0 km/h (0 Bft) W 270 0 min 0,0 UV-I 1,7 C 2,3 C 0,0 km/h (0 Bft)
01.11.2011 04:10 2,9 C 15,0 C 4,1 C 2,6 C 1,9 C 0,0 C 92 % 92 % 0 % 1018,3 hPa 0,0 l/m 0,0 km/h (0 Bft) N 0 0 min 0,0 UV-I 1,7 C 1,9 C 0,0 km/h (0 Bft)
01.11.2011 04:15 2,7 C 15,0 C 4,1 C 2,4 C 1,8 C 0,0 C 91 % 92 % 0 % 1018,3 hPa 0,0 l/m 0,0 km/h (0 Bft) W 270 0 min 0,0 UV-I 1,4 C 1,8 C 0,0 km/h (0 Bft)
01.11.2011 04:20 2,6 C 15,0 C 4,0 C 2,3 C 1,8 C 0,0 C 92 % 92 % 0 % 1018,4 hPa 0,0 l/m 0,0 km/h (0 Bft) W 270 0 min 0,0 UV-I 1,4 C 1,8 C 0,0 km/h (0 Bft)
01.11.2011 04:25 2,6 C 15,0 C 4,0 C 2,3 C 1,8 C 0,0 C 92 % 92 % 0 % 1018,4 hPa 0,0 l/m 0,0 km/h (0 Bft) W-SW 247 0 min 0,0 UV-I 1,4 C 1,8 C 0,0 km/h (0 Bft)
01.11.2011 04:30 2,5 C 15,0 C 4,0 C 2,3 C 1,9 C 0,0 C 92 % 92 % 0 % 1018,4 hPa 0,0 l/m 0,0 km/h (0 Bft) W-SW 247 0 min 0,0 UV-I 1,3 C 1,9 C 0,0 km/h (0 Bft)
01.11.2011 04:35 2,5 C 15,0 C 3,9 C 2,3 C 1,8 C 0,0 C 92 % 92 % 0 % 1018,4 hPa 0,0 l/m 0,0 km/h (0 Bft) W-SW 247 0 min 0,0 UV-I 1,3 C 1,8 C 0,0 km/h (0 Bft)
01.11.2011 04:40 2,4 C 15,0 C 3,9 C 2,2 C 1,8 C 0,0 C 92 % 92 % 0 % 1018,9 hPa 0,0 l/m 0,0 km/h (0 Bft) W-SW 247 0 min 0,0 UV-I 1,2 C 1,8 C 0,0 km/h (0 Bft)
01.11.2011 04:45 2,4 C 15,0 C 3,8 C 2,1 C 1,6 C 0,0 C 92 % 92 % 0 % 1018,9 hPa 0,0 l/m 0,0 km/h (0 Bft) W-SW 247 0 min 0,0 UV-I 1,2 C 1,6 C 0,0 km/h (0 Bft)
01.11.2011 04:50 2,4 C 14,9 C 3,9 C 2,1 C 1,5 C 0,0 C 92 % 92 % 0 % 1018,9 hPa 0,0 l/m 0,0 km/h (0 Bft) W-SW 247 0 min 0,0 UV-I 1,2 C 1,5 C 0,0 km/h (0 Bft)
01.11.2011 04:55 2,3 C 14,9 C 3,8 C 2,0 C 1,4 C 0,0 C 92 % 92 % 0 % 1018,9 hPa 0,0 l/m 0,0 km/h (0 Bft) W-SW 247 0 min 0,0 UV-I 1,1 C 1,4 C 0,0 km/h (0 Bft)
01.11.2011 05:00 2,3 C 14,9 C 3,8 C 2,0 C 1,4 C 0,0 C 92 % 92 % 0 % 1018,7 hPa 0,0 l/m 0,0 km/h (0 Bft) W 270 0 min 0,0 UV-I 1,1 C 1,4 C 0,0 km/h (0 Bft)
01.11.2011 05:05 2,1 C 14,9 C 3,7 C 1,8 C 1,3 C 0,0 C 92 % 92 % 0 % 1018,7 hPa 0,0 l/m 0,0 km/h (0 Bft) W-SW 247 0 min 0,0 UV-I 0,9 C 1,3 C 0,0 km/h (0 Bft)
01.11.2011 05:10 2,1 C 14,9 C 3,6 C 1,8 C 1,2 C 0,0 C 92 % 92 % 0 % 1018,7 hPa 0,0 l/m 0,0 km/h (0 Bft) W-SW 247 0 min 0,0 UV-I 0,9 C 1,2 C 0,0 km/h (0 Bft)
01.11.2011 05:15 2,0 C 14,9 C 3,7 C 1,7 C 1,1 C 0,0 C 92 % 92 % 0 % 1018,7 hPa 0,0 l/m 0,0 km/h (0 Bft) W-SW 247 0 min 0,0 UV-I 0,8 C 1,1 C 0,0 km/h (0 Bft)
01.11.2011 05:20 2,0 C 14,9 C 3,6 C 1,7 C 1,1 C 0,0 C 92 % 92 % 0 % 1018,2 hPa 0,0 l/m 0,0 km/h (0 Bft) W-SW 247 0 min 0,0 UV-I 0,8 C 1,1 C 0,0 km/h (0 Bft)
01.11.2011 05:25 2,0 C 14,9 C 3,5 C 1,7 C 1,2 C 0,0 C 92 % 92 % 0 % 1018,2 hPa 0,0 l/m 0,0 km/h (0 Bft) W-SW 247 0 min 0,0 UV-I 0,8 C 1,2 C 0,0 km/h (0 Bft)
01.11.2011 05:30 2,0 C 14,8 C 3,6 C 1,8 C 1,4 C 0,0 C 92 % 92 % 0 % 1018,2 hPa 0,0 l/m 0,0 km/h (0 Bft) W-SW 247 0 min 0,0 UV-I 0,8 C 1,4 C 0,0 km/h (0 Bft)
01.11.2011 05:35 2,1 C 14,8 C 3,6 C 1,9 C 1,6 C 0,0 C 92 % 92 % 0 % 1018,2 hPa 0,0 l/m 0,0 km/h (0 Bft) W 270 0 min 0,0 UV-I 0,9 C 1,6 C 0,0 km/h (0 Bft)
01.11.2011 05:40 2,3 C 14,8 C 3,7 C 2,1 C 1,8 C 0,0 C 92 % 92 % 0 % 1018,6 hPa 0,0 l/m 0,0 km/h (0 Bft) W-SW 247 0 min 0,0 UV-I 1,1 C 1,8 C 0,0 km/h (0 Bft)
01.11.2011 05:45 2,3 C 14,8 C 3,5 C 2,1 C 1,8 C 0,0 C 93 % 92 % 0 % 1018,6 hPa 0,0 l/m 0,0 km/h (0 Bft) W-SW 247 0 min 0,0 UV-I 1,3 C 1,8 C 0,0 km/h (0 Bft)
01.11.2011 05:50 2,3 C 14,8 C 3,5 C 2,1 C 1,8 C 0,0 C 93 % 92 % 0 % 1018,6 hPa 0,0 l/m 0,0 km/h (0 Bft) W-SW 247 0 min 0,0 UV-I 1,3 C 1,8 C 0,0 km/h (0 Bft)
01.11.2011 05:55 2,2 C 14,8 C 3,5 C 2,1 C 1,8 C 0,0 C 93 % 92 % 0 % 1018,6 hPa 0,0 l/m 0,0 km/h (0 Bft) W-SW 247 0 min 0,0 UV-I 1,2 C 1,8 C 0,0 km/h (0 Bft)
01.11.2011 06:00 2,3 C 14,8 C 3,4 C 2,1 C 1,8 C 0,0 C 93 % 92 % 0 % 1018,6 hPa 0,0 l/m 0,0 km/h (0 Bft) W-SW 247 0 min 0,0 UV-I 1,3 C 1,8 C 0,0 km/h (0 Bft)
01.11.2011 06:10 2,1 C 14,8 C 3,3 C 2,0 C 1,8 C 0,0 C 92 % 92 % 0 % 1018,6 hPa 0,0 l/m 0,0 km/h (0 Bft) N 0 0 min 0,0 UV-I 0,9 C 1,8 C 0,0 km/h (0 Bft)
01.11.2011 06:15 2,1 C 14,8 C 3,3 C 2,0 C 1,8 C 0,0 C 92 % 92 % 0 % 1018,6 hPa 0,0 l/m 0,0 km/h (0 Bft) O-NO 67 0 min 0,0 UV-I 0,9 C 1,8 C 0,0 km/h (0 Bft)
01.11.2011 06:20 2,2 C 14,7 C 3,3 C 2,1 C 1,8 C 0,0 C 93 % 92 % 0 % 1020,9 hPa 0,0 l/m 0,0 km/h (0 Bft) O-NO 67 0 min 0,0 UV-I 1,2 C 1,8 C 0,0 km/h (0 Bft)
01.11.2011 06:25 2,1 C 14,7 C 3,3 C 2,0 C 1,7 C 0,0 C 92 % 92 % 0 % 1020,9 hPa 0,0 l/m 0,0 km/h (0 Bft) W-SW 247 0 min 0,0 UV-I 0,9 C 1,7 C 0,0 km/h (0 Bft)
01.11.2011 06:30 2,0 C 14,7 C 3,3 C 1,9 C 1,6 C 0,0 C 92 % 92 % 0 % 1020,9 hPa 0,0 l/m 0,0 km/h (0 Bft) W-SW 247 0 min 0,0 UV-I 0,8 C 1,6 C 0,0 km/h (0 Bft)
01.11.2011 06:35 2,0 C 14,7 C 3,2 C 1,8 C 1,3 C 0,0 C 92 % 92 % 0 % 1020,9 hPa 0,0 l/m 0,0 km/h (0 Bft) W-SW 247 0 min 0,0 UV-I 0,8 C 1,3 C 0,0 km/h (0 Bft)
01.11.2011 06:40 1,9 C 14,7 C 3,2 C 1,7 C 1,2 C 0,0 C 92 % 92 % 0 % 1019,1 hPa 0,0 l/m 0,0 km/h (0 Bft) W-SW 247 0 min 0,0 UV-I 0,7 C 1,2 C 0,0 km/h (0 Bft)
01.11.2011 06:45 1,8 C 14,7 C 3,2 C 1,6 C 1,2 C 0,0 C 92 % 92 % 0 % 1019,1 hPa 0,0 l/m 0,0 km/h (0 Bft) W-SW 247 0 min 0,0 UV-I 0,6 C 1,2 C 0,0 km/h (0 Bft)
01.11.2011 06:50 1,9 C 14,7 C 3,1 C 1,6 C 1,1 C 0,0 C 92 % 92 % 0 % 1019,1 hPa 0,0 l/m 0,0 km/h (0 Bft) W-SW 247 0 min 0,0 UV-I 0,7 C 1,1 C 0,0 km/h (0 Bft)
01.11.2011 06:55 1,9 C 14,6 C 2,9 C 1,6 C 1,1 C 0,0 C 92 % 92 % 0 % 1019,1 hPa 0,0 l/m 0,0 km/h (0 Bft) O-NO 67 0 min 0,0 UV-I 0,7 C 1,1 C 0,0 km/h (0 Bft)
01.11.2011 07:00 1,9 C 14,6 C 2,7 C 1,6 C 1,1 C 0,0 C 92 % 92 % 0 % 1018,8 hPa 0,0 l/m 0,0 km/h (0 Bft) O-NO 67 0 min 0,0 UV-I 0,7 C 1,1 C 0,0 km/h (0 Bft)
01.11.2011 07:10 1,7 C 14,6 C 2,9 C 1,4 C 0,9 C 0,0 C 92 % 92 % 0 % 1018,8 hPa 0,0 l/m 0,0 km/h (0 Bft) N 0 0 min 0,0 UV-I 0,5 C 0,9 C 0,0 km/h (0 Bft)
01.11.2011 07:20 1,6 C 14,6 C 3,0 C 1,4 C 0,9 C 0,0 C 92 % 93 % 0 % 1019,1 hPa 0,0 l/m 0,0 km/h (0 Bft) W-SW 247 0 min 0,0 UV-I 0,4 C 0,9 C 0,0 km/h (0 Bft)
01.11.2011 07:25 1,6 C 14,6 C 3,0 C 1,4 C 0,9 C 0,0 C 92 % 93 % 0 % 1019,1 hPa 0,0 l/m 0,0 km/h (0 Bft) W-SW 247 0 min 0,0 UV-I 0,4 C 0,9 C 0,0 km/h (0 Bft)
01.11.2011 07:30 1,5 C 14,6 C 3,1 C 1,3 C 0,9 C 0,0 C 92 % 93 % 0 % 1019,1 hPa 0,0 l/m 0,0 km/h (0 Bft) W-SW 247 0 min 0,0 UV-I 0,3 C 0,9 C 0,0 km/h (0 Bft)
01.11.2011 07:35 1,5 C 14,5 C 3,1 C 1,4 C 1,1 C 0,0 C 92 % 93 % 0 % 1019,1 hPa 0,0 l/m 0,0 km/h (0 Bft) W-SW 247 0 min 0,0 UV-I 0,3 C 1,1 C 0,0 km/h (0 Bft)
01.11.2011 07:40 1,6 C 14,5 C 2,9 C 1,4 C 1,1 C 0,0 C 92 % 93 % 0 % 1019,1 hPa 0,0 l/m 0,0 km/h (0 Bft) W-SW 247 0 min 0,0 UV-I 0,4 C 1,1 C 0,0 km/h (0 Bft)
01.11.2011 07:45 1,6 C 14,5 C 3,0 C 1,5 C 1,2 C 0,0 C 92 % 93 % 0 % 1019,1 hPa 0,0 l/m 0,0 km/h (0 Bft) SW 225 0 min 0,0 UV-I 0,4 C 1,2 C 0,0 km/h (0 Bft)
01.11.2011 07:49 1,5 C 14,5 C 2,8 C 1,4 C 1,3 C 0,0 C 92 % 92 % 0 % 1019,1 hPa 0,0 l/m 0,0 km/h (0 Bft) S 180 0 min 0,0 UV-I 0,3 C 1,3 C 0,0 km/h (0 Bft)
01.11.2011 07:52 1,5 C 14,5 C 2,8 C 1,4 C 1,3 C 0,0 C 92 % 92 % 0 % 1019,1 hPa 0,0 l/m 0,0 km/h (0 Bft) S 180 0 min 0,0 UV-I 0,3 C 1,3 C 0,0 km/h (0 Bft)
01.11.2011 07:55 1,6 C 14,5 C 2,8 C 1,6 C 1,5 C 0,0 C 92 % 93 % 0 % 1019,1 hPa 0,0 l/m 0,0 km/h (0 Bft) S 180 0 min 0,0 UV-I 0,4 C 1,5 C 0,0 km/h (0 Bft)
01.11.2011 08:00 1,6 C 14,5 C 2,9 C 1,7 C 1,7 C 0,1 C 93 % 93 % 3 % 1019,3 hPa 0,0 l/m 0,0 km/h (0 Bft) O-SO 112 0 min 0,0 UV-I 0,6 C 1,7 C 0,0 km/h (0 Bft)
01.11.2011 08:10 1,8 C 14,5 C 3,1 C 2,0 C 2,0 C 0,2 C 93 % 93 % 5 % 1019,3 hPa 0,0 l/m 0,0 km/h (0 Bft) N 0 0 min 0,0 UV-I 0,8 C 2,0 C 0,0 km/h (0 Bft)
01.11.2011 08:15 1,9 C 14,5 C 3,3 C 2,2 C 2,2 C 0,3 C 93 % 93 % 8 % 1019,3 hPa 0,0 l/m 0,0 km/h (0 Bft) O 90 0 min 0,0 UV-I 0,9 C 2,2 C 0,0 km/h (0 Bft)
01.11.2011 08:20 2,1 C 14,5 C 3,3 C 2,6 C 2,6 C 0,5 C 93 % 93 % 13 % 1019,4 hPa 0,0 l/m 0,0 km/h (0 Bft) O-NO 67 0 min 0,0 UV-I 1,1 C 2,6 C 0,0 km/h (0 Bft)
01.11.2011 08:25 2,6 C 14,5 C 3,5 C 3,1 C 3,1 C 0,5 C 93 % 93 % 13 % 1019,4 hPa 0,0 l/m 0,0 km/h (0 Bft) O-NO 67 0 min 0,0 UV-I 1,6 C 3,1 C 0,0 km/h (0 Bft)
01.11.2011 08:30 3,1 C 14,5 C 3,6 C 3,5 C 3,5 C 0,4 C 93 % 93 % 11 % 1019,4 hPa 0,0 l/m 0,0 km/h (0 Bft) O 90 0 min 0,0 UV-I 2,1 C 3,5 C 0,0 km/h (0 Bft)
01.11.2011 08:35 3,1 C 14,5 C 3,9 C 3,7 C 3,7 C 0,6 C 93 % 93 % 16 % 1019,4 hPa 0,0 l/m 0,0 km/h (0 Bft) W-SW 247 0 min 0,0 UV-I 2,1 C 3,7 C 0,0 km/h (0 Bft)
01.11.2011 08:40 3,1 C 14,5 C 3,9 C 3,7 C 3,7 C 0,6 C 93 % 93 % 16 % 1019,6 hPa 0,0 l/m 0,0 km/h (0 Bft) W-SW 247 0 min 0,0 UV-I 2,1 C 3,7 C 0,0 km/h (0 Bft)
01.11.2011 08:45 3,1 C 14,5 C 3,9 C 3,6 C 3,6 C 0,5 C 93 % 93 % 13 % 1019,6 hPa 0,0 l/m 0,0 km/h (0 Bft) W-SW 247 0 min 0,0 UV-I 2,1 C 3,6 C 0,0 km/h (0 Bft)
01.11.2011 08:50 3,1 C 14,5 C 4,1 C 3,6 C 3,6 C 0,5 C 93 % 93 % 13 % 1019,6 hPa 0,0 l/m 0,0 km/h (0 Bft) W-SW 247 0 min 0,0 UV-I 2,1 C 3,6 C 0,0 km/h (0 Bft)
01.11.2011 08:55 3,3 C 14,5 C 4,3 C 3,8 C 3,8 C 0,5 C 93 % 93 % 13 % 1019,6 hPa 0,0 l/m 0,0 km/h (0 Bft) W-SW 247 0 min 0,0 UV-I 2,3 C 3,8 C 0,0 km/h (0 Bft)
01.11.2011 09:00 3,4 C 14,5 C 4,3 C 4,1 C 4,1 C 0,7 C 93 % 93 % 18 % 1020,2 hPa 0,0 l/m 0,0 km/h (0 Bft) SW 225 0 min 0,0 UV-I 2,4 C 4,1 C 0,0 km/h (0 Bft)
01.11.2011 09:11 3,6 C 14,5 C 4,7 C 4,7 C 4,7 C 1,1 C 94 % 94 % 29 % 1020,2 hPa 0,0 l/m 0,0 km/h (0 Bft) N 0 0 min 0,0 UV-I 2,7 C 4,7 C 0,0 km/h (0 Bft)
01.11.2011 09:20 4,9 C 14,5 C 5,7 C 5,8 C 5,8 C 0,9 C 94 % 94 % 24 % 1019,3 hPa 0,0 l/m 0,0 km/h (0 Bft) O-NO 67 0 min 0,0 UV-I 4,0 C 5,8 C 0,0 km/h (0 Bft)
01.11.2011 09:25 5,2 C 14,4 C 5,6 C 6,1 C 6,1 C 0,9 C 94 % 94 % 24 % 1019,3 hPa 0,0 l/m 0,0 km/h (0 Bft) SW 225 0 min 0,0 UV-I 4,3 C 6,1 C 0,0 km/h (0 Bft)
01.11.2011 09:30 5,2 C 14,4 C 5,9 C 6,2 C 6,2 C 1,0 C 94 % 94 % 26 % 1019,3 hPa 0,0 l/m 0,0 km/h (0 Bft) SW 225 0 min 0,0 UV-I 4,3 C 6,2 C 0,0 km/h (0 Bft)
01.11.2011 09:35 5,3 C 14,4 C 6,0 C 6,3 C 6,3 C 1,0 C 94 % 94 % 26 % 1019,3 hPa 0,0 l/m 0,0 km/h (0 Bft) W-SW 247 0 min 0,0 UV-I 4,4 C 6,3 C 0,0 km/h (0 Bft)
01.11.2011 09:40 5,4 C 14,4 C 6,0 C 6,5 C 6,5 C 1,1 C 94 % 94 % 29 % 1019,2 hPa 0,0 l/m 0,0 km/h (0 Bft) O-SO 112 0 min 0,0 UV-I 4,5 C 6,5 C 0,0 km/h (0 Bft)
01.11.2011 09:45 5,6 C 14,4 C 6,3 C 6,8 C 6,8 C 1,2 C 94 % 94 % 32 % 1019,2 hPa 0,0 l/m 0,0 km/h (0 Bft) W-SW 247 0 min 0,0 UV-I 4,7 C 6,8 C 0,0 km/h (0 Bft)
01.11.2011 09:50 5,9 C 14,4 C 6,5 C 7,1 C 7,1 C 1,2 C 94 % 94 % 32 % 1019,2 hPa 0,0 l/m 0,0 km/h (0 Bft) W-SW 247 0 min 0,0 UV-I 5,0 C 7,1 C 0,0 km/h (0 Bft)
01.11.2011 09:55 6,1 C 14,4 C 6,9 C 7,4 C 7,4 C 1,3 C 94 % 94 % 34 % 1019,2 hPa 0,0 l/m 0,0 km/h (0 Bft) W-SW 247 0 min 0,0 UV-I 5,2 C 7,4 C 0,0 km/h (0 Bft)
01.11.2011 10:00 6,4 C 14,4 C 7,0 C 7,6 C 7,6 C 1,2 C 94 % 94 % 32 % 1019,6 hPa 0,0 l/m 0,0 km/h (0 Bft) W-SW 247 0 min 0,0 UV-I 5,5 C 7,6 C 0,0 km/h (0 Bft)
01.11.2011 10:11 6,8 C 14,1 C 7,3 C 8,4 C 8,4 C 1,6 C 94 % 94 % 42 % 1019,6 hPa 0,0 l/m 0,0 km/h (0 Bft) N 0 0 min 0,0 UV-I 5,9 C 8,4 C 0,0 km/h (0 Bft)
01.11.2011 10:20 7,3 C 14,0 C 7,9 C 8,9 C 8,9 C 1,6 C 94 % 94 % 42 % 1018,9 hPa 0,0 l/m 0,8 km/h (0 Bft) S-SW 202 0 min 0,0 UV-I 6,4 C 8,9 C 2,1 km/h (1 Bft)
01.11.2011 10:25 7,7 C 13,9 C 8,1 C 9,1 C 9,1 C 1,4 C 94 % 94 % 37 % 1018,9 hPa 0,0 l/m 1,0 km/h (0 Bft) S 180 0 min 0,0 UV-I 6,8 C 9,1 C 0,0 km/h (0 Bft)
01.11.2011 10:30 7,7 C 13,9 C 8,5 C 9,2 C 9,2 C 1,5 C 94 % 94 % 39 % 1018,9 hPa 0,0 l/m 1,1 km/h (1 Bft) W-SW 247 0 min 0,0 UV-I 6,8 C 9,2 C 3,2 km/h (1 Bft)
01.11.2011 10:35 7,9 C 13,9 C 8,7 C 9,4 C 9,4 C 1,5 C 94 % 94 % 39 % 1018,9 hPa 0,0 l/m 0,6 km/h (0 Bft) S-SW 202 0 min 0,0 UV-I 7,0 C 9,4 C 2,7 km/h (1 Bft)
01.11.2011 10:40 8,0 C 13,9 C 8,8 C 9,9 C 9,9 C 1,9 C 94 % 94 % 50 % 1018,7 hPa 0,0 l/m 1,0 km/h (0 Bft) W-SW 247 0 min 0,0 UV-I 7,1 C 9,9 C 1,6 km/h (1 Bft)
01.11.2011 10:45 8,1 C 13,9 C 9,1 C 10,5 C 10,5 C 2,4 C 94 % 93 % 63 % 1018,7 hPa 0,0 l/m 1,8 km/h (1 Bft) W-SW 247 0 min 0,0 UV-I 7,2 C 10,5 C 4,0 km/h (1 Bft)
01.11.2011 10:50 8,3 C 13,9 C 9,0 C 10,8 C 10,8 C 2,5 C 94 % 93 % 66 % 1018,7 hPa 0,0 l/m 1,8 km/h (1 Bft) SW 225 0 min 0,0 UV-I 7,4 C 10,8 C 2,9 km/h (1 Bft)
01.11.2011 10:55 8,5 C 13,9 C 9,3 C 11,4 C 11,4 C 2,9 C 94 % 93 % 76 % 1018,7 hPa 0,0 l/m 2,6 km/h (1 Bft) SW 225 0 min 0,0 UV-I 7,6 C 11,4 C 3,5 km/h (1 Bft)
01.11.2011 11:00 8,7 C 13,9 C 9,5 C 11,9 C 11,9 C 3,2 C 94 % 93 % 84 % 1018,9 hPa 0,0 l/m 2,1 km/h (1 Bft) SW 225 0 min 0,0 UV-I 7,8 C 11,9 C 4,5 km/h (1 Bft)
01.11.2011 11:11 9,0 C 13,9 C 9,7 C 12,7 C 12,7 C 3,7 C 94 % 93 % 97 % 1018,9 hPa 0,0 l/m 0,6 km/h (0 Bft) N 0 11 min 0,0 UV-I 8,1 C 12,7 C 1,9 km/h (1 Bft)
01.11.2011 11:20 9,5 C 13,8 C 10,1 C 13,1 C 13,1 C 3,6 C 94 % 92 % 95 % 1018,7 hPa 0,0 l/m 1,9 km/h (1 Bft) W-SW 247 9 min 0,0 UV-I 8,6 C 13,1 C 4,7 km/h (1 Bft)
01.11.2011 11:25 9,9 C 13,8 C 10,3 C 14,0 C 14,0 C 4,1 C 94 % 91 % 100 % 1018,7 hPa 0,0 l/m 2,6 km/h (1 Bft) S 180 5 min 0,0 UV-I 9,0 C 14,0 C 2,7 km/h (1 Bft)
01.11.2011 11:30 10,0 C 13,8 C 10,4 C 14,8 C 14,8 C 4,8 C 94 % 91 % 100 % 1018,7 hPa 0,0 l/m 2,6 km/h (1 Bft) W 270 5 min 0,0 UV-I 9,1 C 14,8 C 5,5 km/h (1 Bft)
01.11.2011 11:35 10,3 C 13,8 C 10,7 C 16,0 C 16,0 C 5,7 C 94 % 89 % 100 % 1018,7 hPa 0,0 l/m 2,4 km/h (1 Bft) W-SW 247 5 min 0,0 UV-I 9,4 C 16,0 C 4,2 km/h (1 Bft)
01.11.2011 11:40 10,5 C 13,8 C 10,8 C 16,6 C 16,6 C 6,1 C 94 % 89 % 100 % 1018,4 hPa 0,0 l/m 2,3 km/h (1 Bft) W-SW 247 5 min 0,0 UV-I 9,6 C 16,6 C 1,6 km/h (1 Bft)
01.11.2011 11:45 10,7 C 13,9 C 10,8 C 17,1 C 17,1 C 6,4 C 93 % 89 % 100 % 1018,4 hPa 0,0 l/m 1,1 km/h (1 Bft) S-SO 157 5 min 0,0 UV-I 9,6 C 17,1 C 2,7 km/h (1 Bft)
01.11.2011 11:50 10,8 C 13,9 C 10,8 C 17,1 C 17,1 C 6,3 C 93 % 89 % 100 % 1018,4 hPa 0,0 l/m 1,1 km/h (1 Bft) W-SW 247 5 min 0,0 UV-I 9,7 C 17,1 C 5,3 km/h (1 Bft)
01.11.2011 11:55 11,0 C 13,9 C 10,9 C 16,4 C 16,4 C 5,4 C 92 % 88 % 100 % 1018,4 hPa 0,0 l/m 1,9 km/h (1 Bft) W 270 5 min 0,0 UV-I 9,8 C 16,4 C 1,8 km/h (1 Bft)
01.11.2011 12:00 11,2 C 13,9 C 11,1 C 16,2 C 16,2 C 5,0 C 92 % 88 % 100 % 1018,5 hPa 0,0 l/m 2,1 km/h (1 Bft) W-SW 247 5 min 0,0 UV-I 9,9 C 16,2 C 4,5 km/h (1 Bft)
01.11.2011 12:04 11,5 C 13,8 C 11,2 C 16,2 C 16,2 C 4,7 C 91 % 87 % 100 % 1018,5 hPa 0,0 l/m 2,6 km/h (1 Bft) W-SW 247 4 min 0,0 UV-I 10,1 C 16,2 C 2,4 km/h (1 Bft)
01.11.2011 12:09 11,6 C 13,8 C 11,3 C 15,8 C 15,8 C 4,2 C 91 % 86 % 100 % 1018,5 hPa 0,0 l/m 2,3 km/h (1 Bft) S-SW 202 5 min 0,0 UV-I 10,2 C 15,8 C 0,0 km/h (0 Bft)
01.11.2011 12:14 11,9 C 13,8 C 11,5 C 15,2 C 15,2 C 3,3 C 89 % 86 % 87 % 1018,5 hPa 0,0 l/m 1,9 km/h (1 Bft) S-SO 157 5 min 0,0 UV-I 10,1 C 15,2 C 0,0 km/h (0 Bft)
01.11.2011 12:18 11,9 C 13,8 C 11,5 C 15,2 C 15,2 C 3,3 C 89 % 86 % 87 % 1018,5 hPa 0,0 l/m 1,9 km/h (1 Bft) S-SO 157 4 min 0,0 UV-I 10,1 C 15,2 C 0,0 km/h (0 Bft)
01.11.2011 12:25 12,3 C 13,8 C 11,7 C 14,7 C 14,7 C 2,4 C 87 % 86 % 63 % 1017,9 hPa 0,0 l/m 2,4 km/h (1 Bft) SW 225 0 min 0,0 UV-I 10,2 C 14,7 C 3,5 km/h (1 Bft)
01.11.2011 12:30 12,5 C 13,8 C 11,8 C 14,8 C 14,8 C 2,3 C 85 % 84 % 61 % 1017,9 hPa 0,0 l/m 3,5 km/h (1 Bft) W-SW 247 0 min 0,0 UV-I 10,0 C 14,8 C 4,3 km/h (1 Bft)
01.11.2011 12:35 12,7 C 13,8 C 11,9 C 15,5 C 15,5 C 2,8 C 84 % 84 % 74 % 1017,9 hPa 0,0 l/m 2,9 km/h (1 Bft) W-SW 247 0 min 0,0 UV-I 10,1 C 15,5 C 2,3 km/h (1 Bft)
01.11.2011 12:40 12,8 C 13,8 C 12,1 C 15,7 C 15,7 C 2,9 C 83 % 83 % 76 % 1017,9 hPa 0,0 l/m 2,9 km/h (1 Bft) SW 225 0 min 0,0 UV-I 10,0 C 15,7 C 5,3 km/h (1 Bft)
01.11.2011 12:45 12,8 C 13,8 C 12,1 C 15,6 C 15,6 C 2,8 C 81 % 82 % 74 % 1017,9 hPa 0,0 l/m 3,1 km/h (1 Bft) W 270 0 min 0,0 UV-I 9,6 C 15,6 C 2,4 km/h (1 Bft)
01.11.2011 12:50 12,9 C 13,8 C 12,3 C 15,6 C 15,6 C 2,7 C 81 % 82 % 71 % 1017,9 hPa 0,0 l/m 3,2 km/h (1 Bft) W-SW 247 0 min 0,0 UV-I 9,7 C 15,6 C 7,1 km/h (2 Bft)
01.11.2011 12:55 13,1 C 13,9 C 12,3 C 16,4 C 16,4 C 3,3 C 80 % 82 % 87 % 1017,9 hPa 0,0 l/m 3,2 km/h (1 Bft) W-SW 247 5 min 0,0 UV-I 9,7 C 16,4 C 2,1 km/h (1 Bft)
01.11.2011 13:00 13,3 C 13,9 C 12,4 C 16,6 C 16,6 C 3,3 C 79 % 81 % 87 % 1017,7 hPa 0,0 l/m 3,5 km/h (1 Bft) W-SW 247 5 min 0,0 UV-I 9,7 C 16,6 C 6,4 km/h (2 Bft)
01.11.2011 13:10 13,3 C 13,9 C 12,7 C 17,1 C 17,1 C 3,8 C 78 % 81 % 100 % 1017,7 hPa 0,0 l/m 3,5 km/h (1 Bft) N 0 10 min 0,0 UV-I 9,5 C 17,1 C 3,2 km/h (1 Bft)
01.11.2011 13:20 13,7 C 13,9 C 12,9 C 17,3 C 17,3 C 3,6 C 77 % 80 % 95 % 1017,8 hPa 0,0 l/m 2,9 km/h (1 Bft) W-SW 247 10 min 0,0 UV-I 9,7 C 17,3 C 1,8 km/h (1 Bft)
01.11.2011 13:25 13,9 C 14,0 C 12,9 C 18,0 C 18,0 C 4,1 C 75 % 80 % 100 % 1017,8 hPa 0,0 l/m 2,9 km/h (1 Bft) S 180 5 min 0,0 UV-I 9,5 C 18,0 C 5,8 km/h (2 Bft)
01.11.2011 13:30 13,9 C 14,0 C 13,0 C 18,2 C 18,2 C 4,3 C 76 % 80 % 100 % 1017,8 hPa 0,0 l/m 2,3 km/h (1 Bft) W 270 5 min 0,0 UV-I 9,7 C 18,2 C 7,2 km/h (2 Bft)
01.11.2011 13:35 13,9 C 14,0 C 13,1 C 18,3 C 18,3 C 4,4 C 75 % 78 % 100 % 1017,8 hPa 0,0 l/m 2,6 km/h (1 Bft) NW 315 5 min 0,0 UV-I 9,5 C 18,3 C 3,9 km/h (1 Bft)
01.11.2011 13:40 14,0 C 14,0 C 13,2 C 18,2 C 18,2 C 4,2 C 74 % 80 % 100 % 1017,9 hPa 0,0 l/m 2,9 km/h (1 Bft) W-SW 247 5 min 0,0 UV-I 9,4 C 18,2 C 6,0 km/h (2 Bft)
01.11.2011 13:45 14,0 C 14,0 C 13,6 C 17,7 C 17,7 C 3,7 C 74 % 79 % 97 % 1017,9 hPa 0,0 l/m 3,7 km/h (1 Bft) W-SW 247 5 min 0,0 UV-I 9,4 C 17,7 C 5,5 km/h (1 Bft)
01.11.2011 13:50 14,1 C 14,0 C 13,7 C 17,4 C 17,4 C 3,3 C 73 % 79 % 87 % 1017,9 hPa 0,0 l/m 4,8 km/h (1 Bft) SW 225 5 min 0,0 UV-I 9,3 C 17,4 C 6,6 km/h (2 Bft)
01.11.2011 13:55 14,1 C 14,1 C 14,4 C 17,3 C 17,3 C 3,2 C 73 % 77 % 84 % 1017,9 hPa 0,0 l/m 5,0 km/h (1 Bft) SW 225 0 min 0,0 UV-I 9,3 C 17,3 C 5,1 km/h (1 Bft)
01.11.2011 14:00 14,3 C 14,1 C 15,3 C 17,6 C 17,6 C 3,3 C 74 % 77 % 87 % 1017,9 hPa 0,0 l/m 4,3 km/h (1 Bft) SW 225 5 min 0,0 UV-I 9,7 C 17,6 C 9,2 km/h (2 Bft)
01.11.2011 14:12 14,8 C 14,1 C 17,3 C 17,9 C 17,9 C 3,1 C 73 % 71 % 82 % 1017,9 hPa 0,0 l/m 1,9 km/h (1 Bft) N 0 0 min 0,0 UV-I 10,0 C 17,9 C 3,2 km/h (1 Bft)
01.11.2011 14:20 14,7 C 14,1 C 18,0 C 17,5 C 17,5 C 2,8 C 72 % 67 % 74 % 1018,5 hPa 0,0 l/m 5,0 km/h (1 Bft) W-SW 247 0 min 0,0 UV-I 9,7 C 17,5 C 9,8 km/h (2 Bft)
01.11.2011 14:25 14,9 C 14,1 C 18,3 C 17,3 C 17,3 C 2,4 C 72 % 65 % 63 % 1018,5 hPa 0,0 l/m 5,3 km/h (1 Bft) W 270 0 min 0,0 UV-I 9,9 C 17,3 C 5,3 km/h (1 Bft)
01.11.2011 14:30 15,1 C 14,1 C 18,3 C 17,2 C 17,2 C 2,1 C 71 % 65 % 55 % 1018,5 hPa 0,0 l/m 5,0 km/h (1 Bft) W-SW 247 0 min 0,0 UV-I 9,9 C 17,2 C 4,0 km/h (1 Bft)
01.11.2011 14:35 15,1 C 14,2 C 18,4 C 17,0 C 17,0 C 1,9 C 71 % 64 % 50 % 1018,5 hPa 0,0 l/m 4,7 km/h (1 Bft) W 270 0 min 0,0 UV-I 9,9 C 17,0 C 5,3 km/h (1 Bft)
01.11.2011 14:40 15,1 C 14,2 C 18,2 C 17,0 C 17,0 C 1,9 C 71 % 64 % 50 % 1017,8 hPa 0,0 l/m 4,5 km/h (1 Bft) W-SW 247 0 min 0,0 UV-I 9,9 C 17,0 C 3,2 km/h (1 Bft)
01.11.2011 14:45 15,2 C 14,2 C 16,9 C 17,0 C 17,0 C 1,8 C 70 % 65 % 47 % 1017,8 hPa 0,0 l/m 4,0 km/h (1 Bft) W-SW 247 0 min 0,0 UV-I 9,8 C 17,0 C 6,6 km/h (2 Bft)
01.11.2011 14:50 15,1 C 14,2 C 16,0 C 16,7 C 16,7 C 1,6 C 70 % 67 % 42 % 1017,8 hPa 0,0 l/m 4,3 km/h (1 Bft) W-SW 247 0 min 0,0 UV-I 9,7 C 16,7 C 8,7 km/h (2 Bft)
01.11.2011 14:55 14,9 C 14,2 C 15,3 C 16,4 C 16,4 C 1,5 C 70 % 70 % 39 % 1017,8 hPa 0,0 l/m 5,8 km/h (2 Bft) W-SW 247 0 min 0,0 UV-I 9,5 C 16,4 C 14,6 km/h (3 Bft)
01.11.2011 15:00 14,7 C 14,2 C 14,9 C 15,9 C 15,9 C 1,2 C 71 % 71 % 32 % 1017,8 hPa 0,0 l/m 6,6 km/h (2 Bft) W-SW 247 0 min 0,0 UV-I 9,5 C 15,9 C 11,3 km/h (2 Bft)
01.11.2011 15:12 14,1 C 14,2 C 14,0 C 15,1 C 15,1 C 1,0 C 71 % 73 % 26 % 1017,8 hPa 0,0 l/m 6,4 km/h (2 Bft) N 0 0 min 0,0 UV-I 8,9 C 15,1 C 4,3 km/h (1 Bft)
01.11.2011 15:20 13,4 C 14,2 C 13,5 C 14,6 C 14,6 C 1,2 C 73 % 74 % 32 % 1018,1 hPa 0,0 l/m 6,1 km/h (2 Bft) SW 225 0 min 0,0 UV-I 8,7 C 14,6 C 4,2 km/h (1 Bft)
01.11.2011 15:25 13,2 C 14,2 C 13,2 C 14,3 C 14,3 C 1,1 C 73 % 75 % 29 % 1018,1 hPa 0,0 l/m 6,3 km/h (2 Bft) W-SW 247 0 min 0,0 UV-I 8,5 C 14,3 C 8,7 km/h (2 Bft)
01.11.2011 15:30 13,1 C 14,3 C 12,9 C 14,2 C 14,2 C 1,1 C 74 % 75 % 29 % 1018,1 hPa 0,0 l/m 5,1 km/h (1 Bft) SW 225 0 min 0,0 UV-I 8,6 C 14,2 C 3,9 km/h (1 Bft)
01.11.2011 15:35 12,9 C 14,3 C 12,8 C 13,9 C 13,9 C 1,0 C 74 % 76 % 26 % 1018,1 hPa 0,0 l/m 5,6 km/h (1 Bft) SW 225 0 min 0,0 UV-I 8,4 C 13,9 C 7,4 km/h (2 Bft)
01.11.2011 15:40 12,9 C 14,3 C 12,7 C 13,7 C 13,7 C 0,8 C 74 % 77 % 21 % 1018,1 hPa 0,0 l/m 5,1 km/h (1 Bft) W-SW 247 0 min 0,0 UV-I 8,4 C 13,7 C 2,7 km/h (1 Bft)
01.11.2011 15:45 12,7 C 14,3 C 12,4 C 13,4 C 13,4 C 0,7 C 74 % 77 % 18 % 1018,1 hPa 0,0 l/m 4,5 km/h (1 Bft) SW 225 0 min 0,0 UV-I 8,2 C 13,4 C 6,8 km/h (2 Bft)
01.11.2011 15:50 12,5 C 14,3 C 12,3 C 13,2 C 13,2 C 0,7 C 74 % 77 % 18 % 1018,1 hPa 0,0 l/m 4,5 km/h (1 Bft) W 270 0 min 0,0 UV-I 8,0 C 13,2 C 5,3 km/h (1 Bft)
01.11.2011 15:55 12,3 C 14,3 C 12,0 C 12,8 C 12,8 C 0,5 C 75 % 77 % 13 % 1018,1 hPa 0,0 l/m 4,3 km/h (1 Bft) W-SW 247 0 min 0,0 UV-I 8,0 C 12,8 C 5,3 km/h (1 Bft)
01.11.2011 16:00 12,1 C 14,3 C 11,9 C 12,6 C 12,6 C 0,5 C 75 % 78 % 13 % 1018,1 hPa 0,0 l/m 3,5 km/h (1 Bft) W-SW 247 0 min 0,0 UV-I 7,8 C 12,6 C 5,3 km/h (1 Bft)
01.11.2011 16:12 11,9 C 14,4 C 11,7 C 12,1 C 12,1 C 0,2 C 76 % 79 % 5 % 1018,1 hPa 0,0 l/m 3,2 km/h (1 Bft) N 0 0 min 0,0 UV-I 7,8 C 12,1 C 1,8 km/h (1 Bft)
01.11.2011 16:20 11,5 C 14,4 C 11,2 C 11,4 C 11,3 C 0,0 C 77 % 80 % 0 % 1018,2 hPa 0,0 l/m 1,8 km/h (1 Bft) SW 225 0 min 0,0 UV-I 7,6 C 11,3 C 3,5 km/h (1 Bft)
01.11.2011 16:25 11,3 C 14,4 C 11,1 C 11,2 C 10,9 C 0,0 C 77 % 80 % 0 % 1018,2 hPa 0,0 l/m 2,1 km/h (1 Bft) W 270 0 min 0,0 UV-I 7,4 C 10,9 C 2,1 km/h (1 Bft)
01.11.2011 16:30 11,0 C 14,4 C 10,8 C 10,9 C 10,6 C 0,0 C 78 % 80 % 0 % 1018,2 hPa 0,0 l/m 1,6 km/h (1 Bft) W-SW 247 0 min 0,0 UV-I 7,3 C 10,6 C 0,0 km/h (0 Bft)
01.11.2011 16:35 10,8 C 14,5 C 10,7 C 10,5 C 10,0 C 0,0 C 78 % 81 % 0 % 1018,2 hPa 0,0 l/m 0,3 km/h (0 Bft) W-SW 247 0 min 0,0 UV-I 7,1 C 10,0 C 1,9 km/h (1 Bft)
01.11.2011 16:40 10,7 C 14,5 C 10,5 C 10,3 C 9,6 C 0,0 C 79 % 81 % 0 % 1017,9 hPa 0,0 l/m 0,2 km/h (0 Bft) W-SW 247 0 min 0,0 UV-I 7,2 C 9,6 C 0,0 km/h (0 Bft)
01.11.2011 16:45 10,3 C 14,5 C 10,0 C 9,9 C 9,2 C 0,0 C 79 % 82 % 0 % 1017,9 hPa 0,0 l/m 0,2 km/h (0 Bft) NW 315 0 min 0,0 UV-I 6,8 C 9,2 C 0,0 km/h (0 Bft)
01.11.2011 16:50 10,1 C 14,5 C 9,9 C 9,7 C 8,8 C 0,0 C 80 % 82 % 0 % 1017,9 hPa 0,0 l/m 0,0 km/h (0 Bft) NW 315 0 min 0,0 UV-I 6,8 C 8,8 C 0,0 km/h (0 Bft)
01.11.2011 16:55 9,9 C 14,5 C 9,7 C 9,4 C 8,4 C 0,0 C 80 % 82 % 0 % 1017,9 hPa 0,0 l/m 0,0 km/h (0 Bft) NW 315 0 min 0,0 UV-I 6,6 C 8,4 C 0,0 km/h (0 Bft)
01.11.2011 17:00 9,6 C 14,6 C 9,6 C 9,1 C 8,1 C 0,0 C 81 % 83 % 0 % 1018,4 hPa 0,0 l/m 0,0 km/h (0 Bft) NW 315 0 min 0,0 UV-I 6,5 C 8,1 C 0,0 km/h (0 Bft)
01.11.2011 17:14 9,1 C 14,6 C 9,2 C 8,6 C 7,7 C 0,0 C 82 % 84 % 0 % 1018,4 hPa 0,0 l/m 0,0 km/h (0 Bft) NW 315 0 min 0,0 UV-I 6,2 C 7,7 C 0,0 km/h (0 Bft)
01.11.2011 17:15 8,9 C 14,7 C 9,0 C 8,4 C 7,5 C 0,0 C 83 % 84 % 0 % 1018,4 hPa 0,0 l/m 0,0 km/h (0 Bft) NW 315 0 min 0,0 UV-I 6,2 C 7,5 C 0,0 km/h (0 Bft)
01.11.2011 17:16 8,9 C 14,7 C 9,0 C 8,4 C 7,5 C 0,0 C 83 % 84 % 0 % 1018,4 hPa 0,0 l/m 0,0 km/h (0 Bft) NW 315 0 min 0,0 UV-I 6,2 C 7,5 C 0,0 km/h (0 Bft)
01.11.2011 17:19 8,9 C 14,7 C 9,0 C 8,4 C 7,5 C 0,0 C 83 % 84 % 0 % 1018,4 hPa 0,0 l/m 0,0 km/h (0 Bft) NW 315 0 min 0,0 UV-I 6,2 C 7,5 C 0,0 km/h (0 Bft)
01.11.2011 17:25 8,5 C 14,7 C 8,7 C 8,1 C 7,2 C 0,0 C 84 % 84 % 0 % 1018,1 hPa 0,0 l/m 0,0 km/h (0 Bft) W 270 0 min 0,0 UV-I 6,0 C 7,2 C 0,0 km/h (0 Bft)
01.11.2011 17:30 8,5 C 14,8 C 8,5 C 8,0 C 7,0 C 0,0 C 84 % 85 % 0 % 1018,1 hPa 0,0 l/m 0,0 km/h (0 Bft) W 270 0 min 0,0 UV-I 6,0 C 7,0 C 0,0 km/h (0 Bft)
01.11.2011 17:35 8,1 C 14,8 C 8,3 C 7,7 C 6,8 C 0,0 C 84 % 85 % 0 % 1018,1 hPa 0,0 l/m 0,0 km/h (0 Bft) NW 315 0 min 0,0 UV-I 5,6 C 6,8 C 0,0 km/h (0 Bft)
01.11.2011 17:40 8,0 C 14,8 C 8,2 C 7,5 C 6,6 C 0,0 C 84 % 86 % 0 % 1018,2 hPa 0,0 l/m 0,0 km/h (0 Bft) NW 315 0 min 0,0 UV-I 5,5 C 6,6 C 0,0 km/h (0 Bft)
01.11.2011 17:45 7,7 C 14,8 C 8,1 C 7,3 C 6,4 C 0,0 C 85 % 86 % 0 % 1018,2 hPa 0,0 l/m 0,0 km/h (0 Bft) W 270 0 min 0,0 UV-I 5,3 C 6,4 C 0,0 km/h (0 Bft)
01.11.2011 17:50 7,6 C 14,8 C 8,0 C 7,2 C 6,3 C 0,0 C 85 % 86 % 0 % 1018,2 hPa 0,0 l/m 0,0 km/h (0 Bft) W 270 0 min 0,0 UV-I 5,2 C 6,3 C 0,0 km/h (0 Bft)
01.11.2011 17:55 7,5 C 14,9 C 7,8 C 7,0 C 6,1 C 0,0 C 86 % 86 % 0 % 1018,2 hPa 0,0 l/m 0,0 km/h (0 Bft) W 270 0 min 0,0 UV-I 5,3 C 6,1 C 0,0 km/h (0 Bft)
01.11.2011 18:00 7,2 C 14,9 C 7,6 C 6,8 C 6,0 C 0,0 C 86 % 86 % 0 % 1018,1 hPa 0,0 l/m 0,0 km/h (0 Bft) W 270 0 min 0,0 UV-I 5,0 C 6,0 C 0,0 km/h (0 Bft)
01.11.2011 18:11 7,0 C 14,9 C 7,3 C 6,7 C 6,0 C 0,0 C 86 % 87 % 0 % 1018,1 hPa 0,0 l/m 0,0 km/h (0 Bft) N 0 0 min 0,0 UV-I 4,8 C 6,0 C 0,0 km/h (0 Bft)
01.11.2011 18:20 6,8 C 15,0 C 7,2 C 6,5 C 5,8 C 0,0 C 87 % 88 % 0 % 1018,6 hPa 0,0 l/m 0,0 km/h (0 Bft) N 360 0 min 0,0 UV-I 4,8 C 5,8 C 0,0 km/h (0 Bft)
01.11.2011 18:25 6,7 C 15,0 C 7,0 C 6,4 C 5,7 C 0,0 C 87 % 88 % 0 % 1018,6 hPa 0,0 l/m 0,0 km/h (0 Bft) N 360 0 min 0,0 UV-I 4,7 C 5,7 C 0,0 km/h (0 Bft)
01.11.2011 18:30 6,5 C 14,9 C 6,9 C 6,2 C 5,7 C 0,0 C 88 % 88 % 0 % 1018,6 hPa 0,0 l/m 0,0 km/h (0 Bft) N 360 0 min 0,0 UV-I 4,7 C 5,7 C 0,0 km/h (0 Bft)
01.11.2011 18:35 6,4 C 14,9 C 6,9 C 6,1 C 5,5 C 0,0 C 87 % 88 % 0 % 1018,6 hPa 0,0 l/m 0,0 km/h (0 Bft) N 360 0 min 0,0 UV-I 4,4 C 5,5 C 0,0 km/h (0 Bft)
01.11.2011 18:40 6,3 C 14,9 C 6,8 C 6,0 C 5,4 C 0,0 C 88 % 88 % 0 % 1018,5 hPa 0,0 l/m 0,0 km/h (0 Bft) NW 315 0 min 0,0 UV-I 4,5 C 5,4 C 0,0 km/h (0 Bft)
01.11.2011 18:45 6,3 C 14,9 C 6,7 C 6,0 C 5,3 C 0,0 C 88 % 88 % 0 % 1018,5 hPa 0,0 l/m 0,0 km/h (0 Bft) W 270 0 min 0,0 UV-I 4,5 C 5,3 C 0,0 km/h (0 Bft)
01.11.2011 18:50 6,1 C 14,9 C 6,6 C 5,8 C 5,3 C 0,0 C 88 % 89 % 0 % 1018,5 hPa 0,0 l/m 0,0 km/h (0 Bft) W 270 0 min 0,0 UV-I 4,3 C 5,3 C 0,0 km/h (0 Bft)
01.11.2011 18:55 6,1 C 14,9 C 6,6 C 5,7 C 5,0 C 0,0 C 88 % 89 % 0 % 1018,5 hPa 0,0 l/m 0,0 km/h (0 Bft) W 270 0 min 0,0 UV-I 4,3 C 5,0 C 0,0 km/h (0 Bft)
01.11.2011 19:00 5,9 C 14,8 C 6,5 C 5,6 C 5,0 C 0,0 C 88 % 89 % 0 % 1018,6 hPa 0,0 l/m 0,0 km/h (0 Bft) W 270 0 min 0,0 UV-I 4,1 C 5,0 C 0,0 km/h (0 Bft)
01.11.2011 19:11 5,8 C 14,8 C 6,5 C 5,5 C 5,0 C 0,0 C 89 % 89 % 0 % 1018,6 hPa 0,0 l/m 0,0 km/h (0 Bft) N 0 0 min 0,0 UV-I 4,1 C 5,0 C 0,0 km/h (0 Bft)
01.11.2011 19:20 5,6 C 14,9 C 6,4 C 5,3 C 4,8 C 0,0 C 89 % 90 % 0 % 1018,7 hPa 0,0 l/m 0,0 km/h (0 Bft) W 270 0 min 0,0 UV-I 3,9 C 4,8 C 0,0 km/h (0 Bft)
01.11.2011 19:25 5,4 C 14,9 C 6,4 C 5,2 C 4,8 C 0,0 C 89 % 89 % 0 % 1018,7 hPa 0,0 l/m 0,0 km/h (0 Bft) W 270 0 min 0,0 UV-I 3,7 C 4,8 C 0,0 km/h (0 Bft)
01.11.2011 19:30 5,5 C 14,9 C 6,3 C 5,2 C 4,7 C 0,0 C 89 % 89 % 0 % 1018,7 hPa 0,0 l/m 0,0 km/h (0 Bft) W 270 0 min 0,0 UV-I 3,8 C 4,7 C 0,0 km/h (0 Bft)
01.11.2011 19:35 5,2 C 14,9 C 6,1 C 5,0 C 4,7 C 0,0 C 89 % 90 % 0 % 1018,7 hPa 0,0 l/m 0,0 km/h (0 Bft) W 270 0 min 0,0 UV-I 3,5 C 4,7 C 0,0 km/h (0 Bft)
01.11.2011 19:40 5,2 C 14,9 C 6,0 C 5,0 C 4,6 C 0,0 C 89 % 89 % 0 % 1018,7 hPa 0,0 l/m 0,0 km/h (0 Bft) W 270 0 min 0,0 UV-I 3,5 C 4,6 C 0,0 km/h (0 Bft)
01.11.2011 19:45 5,1 C 14,8 C 6,0 C 4,9 C 4,5 C 0,0 C 89 % 89 % 0 % 1018,7 hPa 0,0 l/m 0,0 km/h (0 Bft) W 270 0 min 0,0 UV-I 3,4 C 4,5 C 0,0 km/h (0 Bft)
01.11.2011 19:50 5,1 C 14,9 C 6,0 C 4,9 C 4,5 C 0,0 C 89 % 90 % 0 % 1018,7 hPa 0,0 l/m 0,0 km/h (0 Bft) W 270 0 min 0,0 UV-I 3,4 C 4,5 C 0,0 km/h (0 Bft)
01.11.2011 19:55 5,1 C 14,8 C 6,0 C 4,9 C 4,5 C 0,0 C 89 % 90 % 0 % 1018,7 hPa 0,0 l/m 0,0 km/h (0 Bft) W-SW 247 0 min 0,0 UV-I 3,4 C 4,5 C 0,0 km/h (0 Bft)
01.11.2011 20:00 5,0 C 14,9 C 6,0 C 4,8 C 4,5 C 0,0 C 90 % 90 % 0 % 1018,8 hPa 0,0 l/m 0,0 km/h (0 Bft) W-SW 247 0 min 0,0 UV-I 3,5 C 4,5 C 0,0 km/h (0 Bft)
01.11.2011 20:14 4,9 C 14,9 C 5,6 C 4,7 C 4,4 C 0,0 C 90 % 90 % 0 % 1018,8 hPa 0,0 l/m 0,0 km/h (0 Bft) S 180 0 min 0,0 UV-I 3,4 C 4,4 C 0,0 km/h (0 Bft)
01.11.2011 20:16 4,9 C 14,9 C 5,6 C 4,7 C 4,4 C 0,0 C 90 % 90 % 0 % 1018,8 hPa 0,0 l/m 0,0 km/h (0 Bft) S 180 0 min 0,0 UV-I 3,4 C 4,4 C 0,0 km/h (0 Bft)
01.11.2011 20:20 4,9 C 14,8 C 5,6 C 4,7 C 4,3 C 0,0 C 90 % 90 % 0 % 1018,8 hPa 0,0 l/m 0,0 km/h (0 Bft) W-SW 247 0 min 0,0 UV-I 3,4 C 4,3 C 0,0 km/h (0 Bft)
01.11.2011 20:25 4,8 C 14,9 C 5,6 C 4,6 C 4,2 C 0,0 C 90 % 90 % 0 % 1018,8 hPa 0,0 l/m 0,0 km/h (0 Bft) W-SW 247 0 min 0,0 UV-I 3,3 C 4,2 C 0,0 km/h (0 Bft)
01.11.2011 20:30 4,7 C 14,9 C 5,5 C 4,5 C 4,2 C 0,0 C 90 % 90 % 0 % 1018,8 hPa 0,0 l/m 0,0 km/h (0 Bft) W-SW 247 0 min 0,0 UV-I 3,2 C 4,2 C 0,0 km/h (0 Bft)
01.11.2011 20:35 4,7 C 14,9 C 5,3 C 4,5 C 4,0 C 0,0 C 90 % 90 % 0 % 1018,8 hPa 0,0 l/m 0,0 km/h (0 Bft) W-SW 247 0 min 0,0 UV-I 3,2 C 4,0 C 0,0 km/h (0 Bft)
01.11.2011 20:40 4,5 C 14,9 C 5,2 C 4,3 C 4,0 C 0,0 C 90 % 90 % 0 % 1018,6 hPa 0,0 l/m 0,0 km/h (0 Bft) W-SW 247 0 min 0,0 UV-I 3,0 C 4,0 C 0,0 km/h (0 Bft)
01.11.2011 20:45 4,6 C 14,9 C 5,2 C 4,4 C 4,0 C 0,0 C 90 % 90 % 0 % 1018,6 hPa 0,0 l/m 0,0 km/h (0 Bft) W-SW 247 0 min 0,0 UV-I 3,1 C 4,0 C 0,0 km/h (0 Bft)
01.11.2011 20:50 4,5 C 14,9 C 5,2 C 4,3 C 3,8 C 0,0 C 90 % 90 % 0 % 1018,6 hPa 0,0 l/m 0,0 km/h (0 Bft) W-SW 247 0 min 0,0 UV-I 3,0 C 3,8 C 0,0 km/h (0 Bft)
01.11.2011 20:55 4,4 C 14,9 C 5,2 C 4,2 C 3,7 C 0,0 C 90 % 91 % 0 % 1018,6 hPa 0,0 l/m 0,0 km/h (0 Bft) W-SW 247 0 min 0,0 UV-I 2,9 C 3,7 C 0,0 km/h (0 Bft)
01.11.2011 21:00 4,3 C 14,8 C 5,2 C 4,1 C 3,7 C 0,0 C 90 % 91 % 0 % 1019,4 hPa 0,0 l/m 0,0 km/h (0 Bft) W-SW 247 0 min 0,0 UV-I 2,8 C 3,7 C 0,0 km/h (0 Bft)
01.11.2011 21:04 4,3 C 14,9 C 5,2 C 4,1 C 3,6 C 0,0 C 90 % 90 % 0 % 1019,4 hPa 0,0 l/m 0,0 km/h (0 Bft) W-SW 247 0 min 0,0 UV-I 2,8 C 3,6 C 0,0 km/h (0 Bft)
01.11.2011 21:09 4,1 C 14,9 C 5,0 C 3,9 C 3,5 C 0,0 C 90 % 90 % 0 % 1019,4 hPa 0,0 l/m 0,0 km/h (0 Bft) SO 135 0 min 0,0 UV-I 2,6 C 3,5 C 0,0 km/h (0 Bft)
01.11.2011 21:14 4,0 C 14,8 C 4,9 C 3,8 C 3,4 C 0,0 C 90 % 90 % 0 % 1019,4 hPa 0,0 l/m 0,0 km/h (0 Bft) W-SW 247 0 min 0,0 UV-I 2,5 C 3,4 C 0,0 km/h (0 Bft)
01.11.2011 21:18 4,0 C 14,8 C 4,9 C 3,8 C 3,4 C 0,0 C 90 % 90 % 0 % 1019,4 hPa 0,0 l/m 0,0 km/h (0 Bft) W-SW 247 0 min 0,0 UV-I 2,5 C 3,4 C 0,0 km/h (0 Bft)
01.11.2011 21:25 4,1 C 14,8 C 4,8 C 3,9 C 3,4 C 0,0 C 90 % 91 % 0 % 1019,4 hPa 0,0 l/m 0,0 km/h (0 Bft) W-SW 247 0 min 0,0 UV-I 2,6 C 3,4 C 0,0 km/h (0 Bft)
01.11.2011 21:30 4,0 C 14,8 C 4,7 C 3,8 C 3,5 C 0,0 C 91 % 91 % 0 % 1019,4 hPa 0,0 l/m 0,0 km/h (0 Bft) W-SW 247 0 min 0,0 UV-I 2,7 C 3,5 C 0,0 km/h (0 Bft)
01.11.2011 21:35 4,1 C 14,8 C 4,7 C 3,9 C 3,4 C 0,0 C 91 % 91 % 0 % 1019,4 hPa 0,0 l/m 0,0 km/h (0 Bft) W-SW 247 0 min 0,0 UV-I 2,8 C 3,4 C 0,0 km/h (0 Bft)
01.11.2011 21:40 3,9 C 14,8 C 4,8 C 3,7 C 3,3 C 0,0 C 91 % 91 % 0 % 1018,8 hPa 0,0 l/m 0,0 km/h (0 Bft) W-SW 247 0 min 0,0 UV-I 2,6 C 3,3 C 0,0 km/h (0 Bft)
01.11.2011 21:45 3,9 C 14,8 C 4,8 C 3,7 C 3,2 C 0,0 C 91 % 91 % 0 % 1018,8 hPa 0,0 l/m 0,0 km/h (0 Bft) W-SW 247 0 min 0,0 UV-I 2,6 C 3,2 C 0,0 km/h (0 Bft)
01.11.2011 21:50 3,7 C 14,8 C 4,7 C 3,5 C 3,0 C 0,0 C 91 % 91 % 0 % 1018,8 hPa 0,0 l/m 0,0 km/h (0 Bft) W-SW 247 0 min 0,0 UV-I 2,4 C 3,0 C 0,0 km/h (0 Bft)
01.11.2011 21:55 3,7 C 14,8 C 4,7 C 3,4 C 2,9 C 0,0 C 91 % 91 % 0 % 1018,8 hPa 0,0 l/m 0,0 km/h (0 Bft) W-SW 247 0 min 0,0 UV-I 2,4 C 2,9 C 0,0 km/h (0 Bft)
01.11.2011 22:00 3,5 C 14,7 C 4,7 C 3,3 C 2,8 C 0,0 C 91 % 91 % 0 % 1018,9 hPa 0,0 l/m 0,0 km/h (0 Bft) W-SW 247 0 min 0,0 UV-I 2,2 C 2,8 C 0,0 km/h (0 Bft)
01.11.2011 22:12 3,4 C 14,8 C 4,4 C 3,2 C 2,9 C 0,0 C 91 % 90 % 0 % 1018,9 hPa 0,0 l/m 0,0 km/h (0 Bft) N 0 0 min 0,0 UV-I 2,1 C 2,9 C 0,0 km/h (0 Bft)
01.11.2011 22:20 3,5 C 14,7 C 4,4 C 3,3 C 3,0 C 0,0 C 91 % 91 % 0 % 1019,5 hPa 0,0 l/m 0,0 km/h (0 Bft) W-SW 247 0 min 0,0 UV-I 2,2 C 3,0 C 0,0 km/h (0 Bft)
01.11.2011 22:25 3,4 C 14,7 C 4,4 C 3,3 C 3,0 C 0,0 C 91 % 91 % 0 % 1019,5 hPa 0,0 l/m 0,0 km/h (0 Bft) W-SW 247 0 min 0,0 UV-I 2,1 C 3,0 C 0,0 km/h (0 Bft)
01.11.2011 22:30 3,4 C 14,7 C 4,4 C 3,2 C 2,8 C 0,0 C 91 % 91 % 0 % 1019,5 hPa 0,0 l/m 0,0 km/h (0 Bft) W-SW 247 0 min 0,0 UV-I 2,1 C 2,8 C 0,0 km/h (0 Bft)
01.11.2011 22:35 3,2 C 14,7 C 4,2 C 3,0 C 2,7 C 0,0 C 91 % 91 % 0 % 1019,5 hPa 0,0 l/m 0,0 km/h (0 Bft) SW 225 0 min 0,0 UV-I 1,9 C 2,7 C 0,0 km/h (0 Bft)
01.11.2011 22:40 3,3 C 14,7 C 4,3 C 3,1 C 2,7 C 0,0 C 91 % 91 % 0 % 1019,0 hPa 0,0 l/m 0,0 km/h (0 Bft) SW 225 0 min 0,0 UV-I 2,0 C 2,7 C 0,0 km/h (0 Bft)
01.11.2011 22:45 3,2 C 14,7 C 4,3 C 3,0 C 2,7 C 0,0 C 91 % 91 % 0 % 1019,0 hPa 0,0 l/m 0,0 km/h (0 Bft) SW 225 0 min 0,0 UV-I 1,9 C 2,7 C 0,0 km/h (0 Bft)
01.11.2011 22:50 3,1 C 14,7 C 4,1 C 3,0 C 2,7 C 0,0 C 91 % 90 % 0 % 1019,0 hPa 0,0 l/m 0,0 km/h (0 Bft) SW 225 0 min 0,0 UV-I 1,8 C 2,7 C 0,0 km/h (0 Bft)
01.11.2011 22:55 3,3 C 14,7 C 3,9 C 3,1 C 2,7 C 0,0 C 92 % 91 % 0 % 1019,0 hPa 0,0 l/m 0,0 km/h (0 Bft) O-SO 112 0 min 0,0 UV-I 2,1 C 2,7 C 0,0 km/h (0 Bft)
01.11.2011 23:00 3,3 C 14,7 C 3,9 C 3,1 C 2,6 C 0,0 C 92 % 91 % 0 % 1019,0 hPa 0,0 l/m 0,0 km/h (0 Bft) O-SO 112 0 min 0,0 UV-I 2,1 C 2,6 C 0,0 km/h (0 Bft)
01.11.2011 23:04 3,2 C 14,6 C 4,0 C 3,0 C 2,5 C 0,0 C 91 % 91 % 0 % 1019,0 hPa 0,0 l/m 0,0 km/h (0 Bft) O-SO 112 0 min 0,0 UV-I 1,9 C 2,5 C 0,0 km/h (0 Bft)
01.11.2011 23:09 3,1 C 14,6 C 4,0 C 2,9 C 2,4 C 0,0 C 91 % 91 % 0 % 1019,0 hPa 0,0 l/m 0,0 km/h (0 Bft) O-SO 112 0 min 0,0 UV-I 1,8 C 2,4 C 0,0 km/h (0 Bft)
01.11.2011 23:14 3,1 C 14,6 C 4,0 C 2,9 C 2,4 C 0,0 C 91 % 91 % 0 % 1019,0 hPa 0,0 l/m 0,0 km/h (0 Bft) W 270 0 min 0,0 UV-I 1,8 C 2,4 C 0,0 km/h (0 Bft)
01.11.2011 23:18 3,1 C 14,6 C 4,0 C 2,9 C 2,4 C 0,0 C 91 % 91 % 0 % 1019,0 hPa 0,0 l/m 0,0 km/h (0 Bft) W 270 0 min 0,0 UV-I 1,8 C 2,4 C 0,0 km/h (0 Bft)
01.11.2011 23:25 2,9 C 14,6 C 4,0 C 2,7 C 2,3 C 0,0 C 91 % 91 % 0 % 1019,3 hPa 0,0 l/m 0,0 km/h (0 Bft) W-SW 247 0 min 0,0 UV-I 1,6 C 2,3 C 0,0 km/h (0 Bft)
01.11.2011 23:30 3,1 C 14,6 C 4,0 C 2,9 C 2,4 C 0,0 C 91 % 92 % 0 % 1019,3 hPa 0,0 l/m 0,0 km/h (0 Bft) W-SW 247 0 min 0,0 UV-I 1,8 C 2,4 C 0,0 km/h (0 Bft)
01.11.2011 23:35 3,1 C 14,6 C 3,8 C 2,9 C 2,4 C 0,0 C 91 % 91 % 0 % 1019,3 hPa 0,0 l/m 0,0 km/h (0 Bft) W 270 0 min 0,0 UV-I 1,8 C 2,4 C 0,0 km/h (0 Bft)
01.11.2011 23:40 2,9 C 14,6 C 3,9 C 2,7 C 2,3 C 0,0 C 91 % 91 % 0 % 1019,6 hPa 0,0 l/m 0,0 km/h (0 Bft) W 270 0 min 0,0 UV-I 1,6 C 2,3 C 0,0 km/h (0 Bft)
01.11.2011 23:45 2,9 C 14,6 C 3,9 C 2,7 C 2,3 C 0,0 C 91 % 91 % 0 % 1019,6 hPa 0,0 l/m 0,0 km/h (0 Bft) W 270 0 min 0,0 UV-I 1,6 C 2,3 C 0,0 km/h (0 Bft)
01.11.2011 23:50 2,9 C 14,6 C 3,8 C 2,7 C 2,2 C 0,0 C 91 % 91 % 0 % 1019,6 hPa 0,0 l/m 0,0 km/h (0 Bft) W 270 0 min 0,0 UV-I 1,6 C 2,2 C 0,0 km/h (0 Bft)
01.11.2011 23:55 2,8 C 14,6 C 3,6 C 2,6 C 2,2 C 0,0 C 91 % 91 % 0 % 1019,6 hPa 0,0 l/m 0,0 km/h (0 Bft) W 270 0 min 0,0 UV-I 1,5 C 2,2 C 0,0 km/h (0 Bft)
_ Min-Zeit 07:30 11:20 07:00 07:30 07:10 00:00 14:45 14:35 00:00 13:00 - 00:00 - - - 00:00 07:30 07:10 00:00
Minimum _ 1,5 C 13,8 C 2,7 C 1,3 C 0,9 C 0,0 C 70 % 64 % 0 % 1017,7 hPa - 0,0 km/h (0 Bft) - - - 0,0 UV-I 0,3 C 0,9 C 0,0 km/h (0 Bft)
_ Max-Zeit 14:45 00:00 14:35 13:35 13:35 11:45 09:11 09:11 11:25 06:20 00:00 15:00 - - 11:11 00:00 12:25 13:35 14:55
Maximum _ 15,2 C 15,6 C 18,4 C 18,3 C 18,3 C 6,4 C 94 % 94 % 100 % 1020,9 hPa 0,0 l/m 6,6 km/h
W-SW (2 Bft)
- - 11 min 0,0 UV-I 10,2 C 18,3 C 14,6 km/h
W-SW (3 Bft)
Durchschnitt _ 6,4 C 14,6 C 7,1 C 7,0 C 6,7 C 0,8 C 88 % 88 % 19 % 1018,7 hPa #0,0 l/m 0,8 km/h (0 Bft) W-SW - #2:23 h 0,0 UV-I 4,5 C 6,7 C 1,1 km/h (1 Bft)
2011 www.wetterstation-wechselburg.de